[[{"header":{"parameterUnit":"m.s-1","parameterCategory":1,"la1":30.2991,"la2":30.254,"lo1":-89.0895,"lo2":-89.0444,"dy":0.0017,"dx":0.0017,"nx":28,"ny":28,"refTime":"2025-09-15T21:00:00:Z","depth":0,"parameterNumber":2,"parameterNumberName":"U-component_of_WINDS"},"data":[0,0,0,0,0,0,0,0,0,0,0,0,0,0,0,0,0,0,0,0,0,0,0,0,0,0,0,0,0,0,0,0,0,0,0,0,0,0,0,0,0,0,0,0,0,0,0,0,0,0,0,0,0,0,0,0,0,0,0.0106,0.0108,0,0.0245,0.0246,0.0248,0.0321,0.0321,0.0321,0.0321,0.0464,0.0468,0.0472,0,0,0,0,0,0,0,0,0,0,0,0,0,-0.0094,-0.0091,0.0106,0.0108,0.011,0.0244,0.0246,0.0248,0.0321,0.0321,0.0321,0.0321,0.0463,0.0468,0.0472,0,0,0,0,0,0,0,0,0,0,0,0,0,0.0013,-0.009,0.0106,0.0162,0.0169,0.0244,0.0246,0.0249,0.0321,0.0321,0.0321,0.0321,0.0462,0.0467,0.0473,0.0503,0,0,0.049,0.0492,0,0,0,0,0,0,0,0,0.0007,0.002,0.0152,0.0158,0.0166,0.0266,0.0228,0.0334,0.0321,0.0263,0.0321,0.0321,0.0398,0.0409,0.0435,0.051,0.0516,0.049,0.0493,0.0496,0.0497,0,0,0,0,0,0,0,-0.0001,0.0015,0.0161,0.0154,0.0162,0.0181,0.0196,0.0249,0.0328,0.0268,0.0274,0.0289,0.0402,0.0429,0.0438,0.0518,0.049,0.0495,0.0498,0.05,0.0624,0.0624,0,0,0,0,0,0,-0.0017,0.0008,0.0157,0.0165,0.0085,0.0184,0.0201,0.0233,0.0328,0.0342,0.0289,0.0292,0.0419,0.0432,0.0444,0.0485,0.0496,0.0501,0.0504,0.0624,0.0624,0.0624,0,0,0,0,0,0,-0.0022,-0.0005,0.0151,0.0088,0.011,0.0187,0.0223,0.0236,0.0263,0.0343,0.0358,0.0302,0.042,0.0436,0.0487,0.0491,0.0503,0.0509,0.0624,0.0624,0.0624,0.0567,0,0,0,0,0,0,-0.0028,-0.0007,0.0006,0.0088,0.0113,0.0192,0.0223,0.0239,0.0272,0.0278,0.0359,0.0373,0.0421,0.0479,0.0493,0.0499,0.0513,0.0624,0.0624,0.0624,0.0569,0.0565,0.0562,0,0,0,0,0,-0.0035,-0.0015,0.0006,0.0023,0.013,0.0192,0.0206,0.0261,0.0272,0.0285,0.0336,0.037,0.0488,0.0483,0.05,0.0508,0.0624,0.0624,0.0624,0.0571,0.0566,0.0562,0,0,0,0,0,0,-0.0098,-0.0003,0.0021,0.0069,0.0122,0.0204,0.0223,0.0255,0.0306,0.0309,0.0376,0.0394,0.0438,0.0478,0.0471,0.0541,0.056,0.0563,0.0514,0.051,0.0506,0.0496,0.0517,0,0,0,0,0,-0.0107,-0.0064,0.0017,0.0051,0.0076,0.0144,0.0174,0.0211,0.0269,0.0292,0.0347,0.0402,0.0452,0.0483,0.0533,0.0575,0.0594,0.0589,0.0585,0.0582,0.0584,0.0608,0.0606,0.0624,0.0624,0.0624,0,0,-0.0123,-0.0066,-0.0043,0.004,0.0085,0.0128,0.0163,0.0207,0.0239,0.0299,0.0351,0.0393,0.0459,0.0505,0.0528,0.054,0.0583,0.0582,0.0578,0.0582,0.0607,0.0606,0.0604,0.0624,0.0624,0.0624,0,0,-0.0132,-0.0085,-0.0051,-0.0007,0.0061,0.0106,0.0114,0.0191,0.0221,0.0274,0.0319,0.0359,0.0443,0.0487,0.0521,0.0527,0.0559,0.0541,0.0522,0.0545,0.0543,0.0543,0.0544,0.0543,0.0543,0.0543,0.0543,0,-0.0161,-0.0096,-0.0038,0.0002,0.0037,0.0092,0.0126,0.0166,0.0247,0.027,0.0281,0.0387,0.0435,0.0492,0.0493,0.0519,0.0529,0.0532,0.0539,0.0539,0.0539,0.054,0.0541,0.054,0.054,0.0541,0.0541,0,-0.0136,-0.0091,-0.0072,0.0003,0.004,0.0077,0.0139,0.017,0.0204,0.0247,0.0299,0.0359,0.0421,0.0438,0.0472,0.0499,0.0504,0.0526,0.0546,0.0533,0.0536,0.0537,0.0536,0.0537,0.0538,0.0539,0,0,-0.0179,-0.0074,-0.0068,-0.0034,0.0045,0.008,0.0119,0.0179,0.0204,0.0257,0.0291,0.036,0.0381,0.0419,0.0458,0.0478,0.0477,0.0498,0.05,0.0491,0.051,0.0492,0.0492,0.0499,0.05,0.05,0.0504,0,-0.0177,-0.0105,-0.0053,-0.0001,0.004,0.0093,0.0126,0.0178,0.0219,0.026,0.0307,0.0354,0.0378,0.0401,0.0423,0.0472,0.0482,0.0473,0.0531,0.0533,0.0512,0.0494,0.0476,0.0476,0.0505,0.0506,0.0506,0,-0.0165,-0.0115,-0.0059,0.0013,0.0033,0.0062,0.012,0.0159,0.0218,0.0247,0.0288,0.0328,0.0371,0.0386,0.0446,0.0439,0.0466,0.0494,0.0495,0.0503,0.0518,0.05,0.0478,0.0478,0.0508,0.0508,0.0508,0,-0.0204,-0.0122,-0.0078,-0.005,0.0036,0.0055,0.0092,0.0151,0.0183,0.0234,0.0255,0.0311,0.0341,0.0383,0.0437,0.0443,0.0491,0.0511,0.0515,0.0514,0.0523,0.0522,0.0505,0.0541,0.0541,0.0541,0.0541,0,-0.0207,-0.0176,-0.0094,-0.0068,-0.0031,0.0028,0.0063,0.0104,0.0156,0.0192,0.0241,0.0273,0.0342,0.0383,0.0425,0.0467,0.0481,0.0505,0.0516,0.05,0.0497,0.0519,0.052,0.0541,0.0541,0.0541,0.0541,0,-0.0244,-0.0188,-0.0137,-0.0061,-0.0041,-0.0018,0.0048,0.0076,0.0119,0.0163,0.0177,0.0245,0.0295,0.0353,0.0422,0.0451,0.0489,0.0506,0.0469,0.0475,0.0476,0.0475,0.0472,0.0474,0.0509,0.0508,0.0508,0,-0.025,-0.0225,-0.0146,-0.0119,-0.0084,-0.0041,-0.0009,0.005,0.0082,0.015,0.0169,0.0223,0.0269,0.0346,0.0402,0.0455,0.0472,0.0467,0.0481,0.0463,0.0471,0.0468,0.0471,0.0464,0.0463,0.0462,0.0462,0,-0.0267,-0.0242,-0.0196,-0.0142,-0.0105,-0.006,-0.0012,0.0007,0.0076,0.0109,0.016,0.0195,0.0265,0.0317,0.0377,0.0415,0.0449,0.0457,0.0461,0.0445,0.0422,0.0434,0.0458,0.0457,0.0458,0.0458,0.0458,0.0459,-0.0289,-0.0265,-0.0206,-0.0158,-0.0116,-0.0073,-0.0044,0.0002,0.0046,0.0106,0.0138,0.0189,0.0246,0.0329,0.0365,0.0405,0.0417,0.0423,0.0424,0.0424,0.0419,0.0416,0.0417,0.0417,0.0417,0.0417,0.0417,0,-0.0304,-0.0265,-0.0221,-0.0157,-0.0119,-0.0091,-0.0037,-0.0008,0.0035,0.0086,0.0129,0.0187,0.0237,0.0296,0.035,0.0371,0.0388,0.0383,0.0382,0.0389,0.0406,0.0397,0.0368,0.0368,0.0368,0.0368,0.0368,0.0368,-0.0308,-0.0266,-0.0233,-0.017,-0.013,-0.0081,-0.0053,-0.0014,0.0026,0.0088,0.013,0.0168,0.0221,0.0279,0.0326,0.0342,0.0359,0.0349,0.037,0.0384,0.0389,0.0393,0.0384,0.0353,0.0353,0.035,0.035,0.035]},{"header":{"parameterUnit":"m.s-1","parameterCategory":1,"la1":30.2991,"la2":30.254,"lo1":-89.0895,"lo2":-89.0444,"dy":0.0017,"dx":0.0017,"nx":28,"ny":28,"refTime":"2025-09-15T21:00:00:Z","depth":0,"parameterNumber":3,"parameterNumberName":"V-component_of_WINDS"},"data":[0,0,0,0,0,0,0,0,0,0,0,0,0,0,0,0,0,0,0,0,0,0,0,0,0,0,0,0,0,0,0,0,0,0,0,0,0,0,0,0,0,0,0,0,0,0,0,0,0,0,0,0,0,0,0,0,0,0,3.211,3.2109,0,3.2035,3.2034,3.2033,3.2048,3.2049,3.2051,3.2052,3.1967,3.1963,3.196,0,0,0,0,0,0,0,0,0,0,0,0,0,3.2257,3.2254,3.211,3.2109,3.2108,3.2035,3.2034,3.2033,3.2048,3.2049,3.2051,3.2053,3.1968,3.1964,3.1959,0,0,0,0,0,0,0,0,0,0,0,0,0,3.2188,3.2253,3.211,3.2107,3.2106,3.2035,3.2034,3.2033,3.2047,3.2049,3.2052,3.2053,3.1969,3.1964,3.1959,3.1884,0,0,3.1942,3.194,0,0,0,0,0,0,0,0,3.2192,3.2183,3.2108,3.2107,3.2106,3.2053,3.2055,3.1983,3.2047,3.2069,3.2052,3.2055,3.1993,3.1986,3.1967,3.188,3.1877,3.1942,3.1939,3.1936,3.1935,0,0,0,0,0,0,0,3.2197,3.2186,3.208,3.2107,3.2105,3.2106,3.2099,3.2041,3.202,3.2067,3.2068,3.206,3.1993,3.1972,3.1965,3.1875,3.1942,3.1937,3.1934,3.1932,3.1722,3.172,0,0,0,0,0,0,3.2204,3.219,3.2082,3.2078,3.2155,3.2102,3.2094,3.2068,3.2021,3.2016,3.2058,3.2061,3.198,3.1971,3.1962,3.1871,3.1936,3.1931,3.1928,3.1724,3.1721,3.1719,0,0,0,0,0,0,3.2207,3.2194,3.2085,3.2134,3.212,3.2097,3.2068,3.2065,3.2045,3.2014,3.2009,3.2042,3.1982,3.197,3.1904,3.1868,3.1929,3.1924,3.1727,3.1723,3.172,3.1688,0,0,0,0,0,0,3.2211,3.2195,3.2169,3.2134,3.2118,3.2031,3.2066,3.2062,3.2037,3.2039,3.1997,3.1992,3.1982,3.1912,3.1899,3.1862,3.192,3.173,3.1725,3.1721,3.1692,3.1684,3.1677,0,0,0,0,0,3.2216,3.2161,3.2167,3.2154,3.2085,3.2029,3.2019,3.2012,3.2034,3.2005,3.1985,3.1993,3.1875,3.1905,3.189,3.1851,3.1732,3.1727,3.1722,3.1696,3.1685,3.1677,0,0,0,0,0,0,3.2189,3.2156,3.2163,3.2095,3.2065,3.2031,3.1995,3.2001,3.1962,3.1966,3.1955,3.1946,3.1878,3.1858,3.1893,3.1776,3.1806,3.1798,3.1791,3.1781,3.1774,3.1779,3.1916,0,0,0,0,0,3.2176,3.2136,3.2108,3.2051,3.2036,3.2018,3.1994,3.1991,3.1958,3.1944,3.192,3.1885,3.184,3.181,3.1766,3.169,3.168,3.1656,3.1648,3.1642,3.1634,3.159,3.1579,3.1701,3.1701,3.1701,0,0,3.2147,3.2124,3.2099,3.2045,3.2021,3.1977,3.2007,3.196,3.1926,3.1936,3.1873,3.1853,3.1814,3.1742,3.1709,3.1723,3.1598,3.1635,3.163,3.1626,3.1583,3.1572,3.1562,3.1698,3.1698,3.1699,0,0,3.2071,3.2051,3.2001,3.1977,3.1942,3.1931,3.1919,3.1884,3.1872,3.181,3.1816,3.1774,3.1697,3.1669,3.1644,3.1558,3.1563,3.1544,3.1503,3.146,3.1451,3.1442,3.1409,3.1398,3.1537,3.1536,3.1536,0,3.2038,3.1976,3.1973,3.1925,3.19,3.1911,3.1858,3.1834,3.1785,3.1766,3.1784,3.1687,3.1661,3.1582,3.1561,3.1541,3.1525,3.1548,3.1453,3.1444,3.1436,3.1404,3.1392,3.1534,3.1534,3.1535,3.1535,0,3.1936,3.1892,3.1855,3.1811,3.1782,3.1732,3.1719,3.169,3.1689,3.1675,3.161,3.158,3.153,3.1512,3.151,3.1431,3.1441,3.1456,3.1485,3.1422,3.1392,3.138,3.1531,3.1532,3.1533,3.1533,0,0,3.184,3.1796,3.1782,3.1762,3.1724,3.1689,3.1638,3.1593,3.1567,3.1533,3.1488,3.1423,3.1436,3.1408,3.1403,3.1366,3.1298,3.1385,3.1384,3.1368,3.1208,3.1196,3.1182,3.1302,3.13,3.1298,3.121,0,3.1759,3.1673,3.1669,3.1589,3.1548,3.1557,3.1513,3.1483,3.1469,3.1429,3.1412,3.1366,3.1388,3.1371,3.1335,3.1314,3.1265,3.1321,3.1257,3.1255,3.1265,3.1167,3.1154,3.1073,3.1199,3.1197,3.1196,0,3.1653,3.1619,3.1536,3.1504,3.1486,3.1447,3.1404,3.1368,3.1333,3.1325,3.1295,3.1295,3.124,3.1274,3.1196,3.1234,3.1208,3.1194,3.1191,3.1182,3.122,3.1154,3.1047,3.1034,3.1178,3.1179,3.118,0,3.1589,3.1522,3.1463,3.1446,3.1408,3.1379,3.1362,3.133,3.1303,3.1265,3.1246,3.1202,3.1176,3.114,3.1127,3.1154,3.105,3.1083,3.1039,3.1039,3.1015,3.1016,3.09,3.1002,3.1002,3.1002,3.1002,0,3.1498,3.1446,3.1434,3.1398,3.1339,3.1335,3.1276,3.1259,3.1231,3.119,3.1195,3.1155,3.1142,3.1099,3.1088,3.1025,3.1013,3.1003,3.1001,3.1002,3.1003,3.0983,3.0987,3.0999,3.0999,3.1,3.1001,0,3.1415,3.1405,3.1342,3.1312,3.1303,3.1261,3.1234,3.1197,3.1185,3.1132,3.1119,3.1098,3.1048,3.1033,3.0971,3.0964,3.0889,3.0893,3.0902,3.0901,3.0857,3.0861,3.0722,3.0702,3.0819,3.0818,3.0817,0,3.1357,3.1318,3.1284,3.1259,3.124,3.1198,3.1171,3.1165,3.1136,3.1094,3.1062,3.1014,3.0974,3.0893,3.087,3.0823,3.0824,3.0779,3.0817,3.0819,3.0821,3.0823,3.0818,3.0771,3.0769,3.0768,3.0768,0,3.1254,3.1251,3.1214,3.1174,3.1143,3.111,3.1079,3.1057,3.1045,3.1012,3.0963,3.0932,3.0871,3.0822,3.0774,3.0753,3.0757,3.0757,3.0743,3.0743,3.0749,3.0743,3.088,3.0759,3.076,3.076,3.0761,3.0761,3.118,3.1145,3.1117,3.1074,3.1051,3.1022,3.0986,3.097,3.093,3.0882,3.088,3.0825,3.0791,3.0728,3.0704,3.066,3.0672,3.0654,3.0649,3.0644,3.064,3.0758,3.0651,3.0651,3.0651,3.0652,3.0652,0,3.1076,3.1058,3.102,3.0977,3.0943,3.0955,3.0921,3.089,3.0844,3.0813,3.0775,3.0717,3.067,3.0644,3.0596,3.0565,3.0565,3.0552,3.0553,3.0547,3.0632,3.0647,3.0552,3.0552,3.0552,3.0552,3.0552,3.0552,3.1017,3.0959,3.0953,3.0882,3.0864,3.0813,3.0793,3.0765,3.074,3.0677,3.0639,3.0623,3.0594,3.0543,3.0499,3.0493,3.0473,3.0458,3.0453,3.0532,3.0542,3.0551,3.0566,3.0455,3.0455,3.0372,3.0371,3.037]}]]